TimeCST,TemperatureF,Dew PointF,Humidity,Sea Level PressureIn,VisibilityMPH,Wind Direction,Wind SpeedMPH,Gust SpeedMPH,PrecipitationIn,Events,Conditions,WindDirDegrees,DateUTC
12:53 AM,37.9,27.0,65,30.05,10.0,NW,8.1,-,N/A,,Clear,310,2012-12-04 06:53:00
1:53 AM,30.9,26.1,82,30.07,10.0,Calm,Calm,-,N/A,,Clear,0,2012-12-04 07:53:00
2:53 AM,28.0,24.1,85,30.07,10.0,WNW,4.6,-,N/A,,Clear,300,2012-12-04 08:53:00
3:53 AM,30.0,24.1,79,30.09,10.0,SSW,8.1,-,N/A,,Clear,210,2012-12-04 09:53:00
4:53 AM,30.0,24.1,79,30.12,10.0,WSW,4.6,-,N/A,,Clear,250,2012-12-04 10:53:00
5:53 AM,28.0,23.0,81,30.14,10.0,West,4.6,-,N/A,,Clear,260,2012-12-04 11:53:00
6:53 AM,30.9,24.1,76,30.17,10.0,West,4.6,-,N/A,,Clear,270,2012-12-04 12:53:00
7:53 AM,30.0,24.1,79,30.18,10.0,Calm,Calm,-,N/A,,Clear,0,2012-12-04 13:53:00
8:53 AM,37.0,28.0,70,30.21,10.0,West,3.5,-,N/A,,Clear,280,2012-12-04 14:53:00
9:53 AM,46.0,27.0,47,30.22,10.0,NW,9.2,-,N/A,,Clear,310,2012-12-04 15:53:00
10:53 AM,50.0,26.1,39,30.22,10.0,NNW,12.7,-,N/A,,Clear,330,2012-12-04 16:53:00
11:53 AM,52.0,26.1,37,30.20,10.0,WNW,5.8,-,N/A,,Clear,290,2012-12-04 17:53:00
12:53 PM,55.9,26.1,32,30.20,10.0,NW,9.2,-,N/A,,Clear,320,2012-12-04 18:53:00
1:53 PM,57.0,26.1,30,30.20,10.0,NW,11.5,-,N/A,,Clear,310,2012-12-04 19:53:00
2:53 PM,55.0,27.0,34,30.22,10.0,North,9.2,-,N/A,,Clear,360,2012-12-04 20:53:00
3:53 PM,51.1,27.0,39,30.24,10.0,NNW,10.4,-,N/A,,Clear,340,2012-12-04 21:53:00
4:53 PM,46.0,28.0,50,30.25,10.0,North,8.1,-,N/A,,Clear,350,2012-12-04 22:53:00
5:53 PM,39.9,27.0,60,30.28,10.0,North,8.1,-,N/A,,Clear,360,2012-12-04 23:53:00
6:53 PM,37.0,26.1,65,30.30,10.0,North,6.9,-,N/A,,Clear,350,2012-12-05 00:53:00
7:53 PM,34.0,25.0,70,30.32,9.0,NNE,5.8,-,N/A,,Clear,20,2012-12-05 01:53:00
8:53 PM,35.1,23.0,61,30.33,9.0,North,10.4,-,N/A,,Clear,10,2012-12-05 02:53:00
9:53 PM,33.1,21.0,61,30.35,10.0,NNE,8.1,-,N/A,,Clear,20,2012-12-05 03:53:00
10:53 PM,30.9,19.9,64,30.35,10.0,NNE,9.2,-,N/A,,Clear,30,2012-12-05 04:53:00
11:53 PM,28.9,19.0,67,30.38,10.0,NNE,9.2,-,N/A,,Clear,30,2012-12-05 05:53:00